DAL2267 KLAX-KSFO

Flight info

Callsign DAL2267
Flight time N/A
Altitude 34000
Route SUMMR2 STOKD SERFR SERFR4
Aircraft B738/M-SDE2E3FGHIRWXY/LB1

Departure

Time 2026-05-06 04:22
Airport Los Angeles International Airport (KLAX)

Arrival

Time N/A
Airport San Francisco International Airport (KSFO)
Time Latitude Longitude Altitude Speed Heading
2026-05-06 04:03 33.94633 -118.40834 123 ft 0 kts 96°
2026-05-06 04:12 33.94634 -118.40835 123 ft 1 kts 96°
2026-05-06 04:12 33.94633 -118.40852 123 ft 2 kts 75°
2026-05-06 04:12 33.94627 -118.40869 123 ft 2 kts 59°
2026-05-06 04:13 33.94618 -118.40883 123 ft 2 kts 41°
2026-05-06 04:13 33.94606 -118.40893 124 ft 2 kts 24°
2026-05-06 04:13 33.94591 -118.40898 124 ft 2 kts
2026-05-06 04:13 33.94577 -118.40898 124 ft 1 kts 349°
2026-05-06 04:14 33.94575 -118.40897 124 ft 0 kts 349°
2026-05-06 04:15 33.94584 -118.40899 124 ft 2 kts 352°
2026-05-06 04:15 33.94628 -118.40904 124 ft 8 kts 354°
2026-05-06 04:16 33.94671 -118.40911 123 ft 0 kts 353°
2026-05-06 04:17 33.94682 -118.40913 123 ft 6 kts 353°
2026-05-06 04:18 33.94743 -118.40912 123 ft 9 kts 24°
2026-05-06 04:18 33.94807 -118.40887 123 ft 9 kts 18°
2026-05-06 04:18 33.94844 -118.40807 123 ft 17 kts 83°
2026-05-06 04:18 33.94862 -118.40646 122 ft 19 kts 83°
2026-05-06 04:19 33.94878 -118.40485 122 ft 19 kts 83°
2026-05-06 04:19 33.94894 -118.40321 120 ft 20 kts 84°
2026-05-06 04:19 33.94911 -118.40152 119 ft 20 kts 83°
2026-05-06 04:19 33.94927 -118.39988 118 ft 12 kts 83°
2026-05-06 04:20 33.94952 -118.39932 117 ft 0 kts 34°
2026-05-06 04:21 33.94955 -118.39930 117 ft 2 kts 29°
2026-05-06 04:21 33.95031 -118.39946 117 ft 19 kts 303°
2026-05-06 04:21 33.95027 -118.40108 118 ft 23 kts 263°
2026-05-06 04:21 33.94983 -118.40539 122 ft 89 kts 264°
2026-05-06 04:22 33.94872 -118.41597 124 ft 158 kts 263°
2026-05-06 04:22 33.94727 -118.42948 788 ft 165 kts 263°
2026-05-06 04:22 33.94550 -118.44440 1206 ft 198 kts 260°
2026-05-06 04:23 33.94264 -118.47908 2594 ft 223 kts 269°
2026-05-06 04:23 33.94240 -118.49831 3190 ft 238 kts 270°
2026-05-06 04:23 33.94170 -118.51837 3979 ft 244 kts 267°
2026-05-06 04:23 33.94019 -118.53864 4684 ft 249 kts 265°
2026-05-06 04:24 33.93840 -118.55957 4966 ft 251 kts 265°
2026-05-06 04:24 33.93666 -118.58048 4986 ft 248 kts 266°
2026-05-06 04:24 33.93502 -118.60113 4986 ft 248 kts 266°
2026-05-06 04:24 33.93340 -118.62199 4985 ft 248 kts 266°
2026-05-06 04:25 33.93175 -118.64316 5309 ft 262 kts 266°
2026-05-06 04:25 33.93006 -118.66461 6334 ft 255 kts 265°
2026-05-06 04:25 33.92842 -118.68574 7093 ft 260 kts 266°
2026-05-06 04:25 33.92675 -118.70752 7844 ft 267 kts 266°
2026-05-06 04:26 33.92502 -118.72993 8540 ft 277 kts 267°
2026-05-06 04:26 33.92319 -118.75375 9070 ft 293 kts 267°
2026-05-06 04:26 33.92126 -118.77840 9818 ft 300 kts 267°
2026-05-06 04:26 33.91929 -118.80347 10479 ft 310 kts 267°
2026-05-06 04:27 33.91739 -118.82989 10983 ft 325 kts 269°
2026-05-06 04:27 33.91685 -118.85792 11505 ft 339 kts 273°
2026-05-06 04:27 33.91762 -118.88722 11949 ft 355 kts 275°
2026-05-06 04:27 33.91884 -118.91711 11992 ft 366 kts 275°
2026-05-06 04:28 33.92013 -118.94885 12162 ft 379 kts 275°
2026-05-06 04:28 33.92126 -118.98006 13233 ft 374 kts 275°
2026-05-06 04:28 33.92417 -119.01127 14024 ft 377 kts 284°
2026-05-06 04:28 33.93277 -119.04050 14754 ft 378 kts 300°
2026-05-06 04:29 33.94600 -119.06796 15561 ft 381 kts 306°
2026-05-06 04:29 33.96063 -119.09504 16385 ft 384 kts 307°
2026-05-06 04:29 33.97545 -119.12193 17130 ft 390 kts 307°
2026-05-06 04:29 33.99057 -119.14937 17933 ft 392 kts 309°
2026-05-06 04:30 34.00740 -119.17499 18688 ft 392 kts 316°
2026-05-06 04:30 34.02682 -119.19866 19341 ft 396 kts 322°
2026-05-06 04:30 34.04792 -119.21989 20090 ft 396 kts 327°
2026-05-06 04:30 34.07013 -119.23972 20793 ft 398 kts 329°
2026-05-06 04:31 34.09261 -119.25885 21521 ft 400 kts 330°
2026-05-06 04:31 34.11562 -119.27818 22145 ft 404 kts 331°
2026-05-06 04:31 34.13914 -119.29795 22797 ft 408 kts 331°
2026-05-06 04:31 34.16247 -119.31766 23317 ft 415 kts 331°
2026-05-06 04:32 34.18594 -119.33761 23986 ft 416 kts 331°
2026-05-06 04:32 34.20969 -119.35796 24637 ft 418 kts 331°
2026-05-06 04:32 34.23339 -119.37830 25188 ft 422 kts 331°
2026-05-06 04:32 34.25776 -119.39925 25656 ft 428 kts 332°
2026-05-06 04:33 34.28181 -119.41999 26265 ft 429 kts 332°
2026-05-06 04:33 34.30635 -119.44119 26793 ft 433 kts 332°
2026-05-06 04:33 34.33117 -119.46264 27262 ft 437 kts 332°
2026-05-06 04:33 34.35580 -119.48397 27777 ft 440 kts 332°
2026-05-06 04:34 34.38088 -119.50570 28236 ft 444 kts 332°
2026-05-06 04:34 34.40574 -119.52879 28763 ft 451 kts 328°
2026-05-06 04:34 34.42952 -119.55421 29362 ft 455 kts 326°
2026-05-06 04:34 34.45261 -119.58106 29742 ft 462 kts 324°
2026-05-06 04:35 34.47502 -119.60836 30378 ft 461 kts 323°
2026-05-06 04:35 34.49736 -119.63614 31204 ft 454 kts 323°
2026-05-06 04:35 34.51919 -119.66348 31801 ft 452 kts 322°
2026-05-06 04:35 34.54118 -119.69100 32368 ft 450 kts 322°
2026-05-06 04:36 34.56307 -119.71833 32888 ft 449 kts 322°
2026-05-06 04:36 34.58498 -119.74566 33513 ft 445 kts 322°
2026-05-06 04:36 34.60666 -119.77263 33978 ft 443 kts 322°
2026-05-06 04:37 34.65087 -119.82743 34061 ft 446 kts 322°
2026-05-06 04:37 34.69434 -119.88135 34059 ft 445 kts 322°
2026-05-06 04:38 34.73763 -119.93507 34062 ft 442 kts 322°
2026-05-06 04:38 34.78067 -119.98853 34058 ft 442 kts 323°
2026-05-06 04:39 34.82460 -120.04308 34066 ft 445 kts 322°
2026-05-06 04:39 34.86807 -120.09721 34061 ft 447 kts 322°
2026-05-06 04:40 34.91130 -120.15125 34055 ft 444 kts 323°
2026-05-06 04:40 34.94445 -120.19273 34063 ft 442 kts 323°
2026-05-06 04:41 34.98823 -120.24748 34061 ft 445 kts 323°
2026-05-06 04:41 35.03170 -120.30197 34060 ft 445 kts 323°
2026-05-06 04:42 35.07464 -120.35594 34062 ft 445 kts 323°
2026-05-06 04:42 35.11861 -120.40929 34061 ft 445 kts 325°
2026-05-06 04:43 35.16387 -120.45987 34062 ft 437 kts 327°
2026-05-06 04:43 35.20928 -120.50976 34063 ft 441 kts 326°
2026-05-06 04:44 35.25470 -120.56007 34064 ft 441 kts 326°
2026-05-06 04:44 35.30095 -120.61167 34066 ft 450 kts 326°
2026-05-06 04:45 35.34756 -120.66393 34067 ft 454 kts 325°
2026-05-06 04:45 35.39408 -120.71647 34069 ft 452 kts 324°
2026-05-06 04:46 35.44077 -120.76927 34065 ft 453 kts 325°
2026-05-06 04:46 35.48708 -120.82130 34066 ft 452 kts 326°
2026-05-06 04:47 35.53608 -120.86933 34066 ft 448 kts 330°
2026-05-06 04:47 35.58590 -120.91475 34065 ft 447 kts 331°
2026-05-06 04:48 35.63621 -120.96053 34067 ft 445 kts 331°
2026-05-06 04:48 35.68577 -121.00607 34068 ft 446 kts 330°
2026-05-06 04:49 35.73550 -121.05212 34070 ft 447 kts 330°
2026-05-06 04:49 35.78539 -121.09861 34069 ft 448 kts 330°
2026-05-06 04:50 35.83500 -121.14498 34069 ft 447 kts 330°
2026-05-06 04:50 35.88475 -121.19157 34071 ft 447 kts 330°
2026-05-06 04:51 35.93398 -121.23779 34070 ft 446 kts 330°
2026-05-06 04:51 35.98334 -121.28417 34071 ft 446 kts 330°
2026-05-06 04:52 36.03307 -121.33098 34074 ft 453 kts 330°
2026-05-06 04:52 36.08464 -121.37824 34074 ft 455 kts 332°
2026-05-06 04:53 36.13739 -121.42055 34071 ft 447 kts 335°
2026-05-06 04:53 36.16340 -121.44055 34071 ft 433 kts 335°
2026-05-06 04:53 36.18876 -121.45999 34073 ft 425 kts 335°
2026-05-06 04:54 36.23920 -121.49859 33290 ft 428 kts 335°
2026-05-06 04:54 36.26442 -121.51801 32165 ft 430 kts 335°
2026-05-06 04:54 36.28993 -121.53773 30865 ft 435 kts 335°
2026-05-06 04:54 36.31559 -121.55763 29497 ft 439 kts 334°
2026-05-06 04:55 36.34173 -121.57802 28493 ft 436 kts 334°
2026-05-06 04:55 36.36723 -121.59800 27785 ft 432 kts 334°
2026-05-06 04:55 36.39247 -121.61787 27254 ft 425 kts 334°
2026-05-06 04:55 36.41752 -121.63762 26639 ft 420 kts 333°
2026-05-06 04:56 36.44183 -121.65679 26002 ft 415 kts 333°
2026-05-06 04:56 36.46602 -121.67587 25386 ft 411 kts 333°
2026-05-06 04:56 36.49002 -121.69482 25104 ft 398 kts 333°
2026-05-06 04:56 36.51291 -121.71298 24918 ft 384 kts 333°
2026-05-06 04:57 36.53528 -121.73070 24329 ft 381 kts 333°
2026-05-06 04:57 36.55761 -121.74831 23695 ft 380 kts 333°
2026-05-06 04:57 36.58009 -121.76605 23111 ft 377 kts 332°
2026-05-06 04:57 36.60206 -121.78340 22558 ft 375 kts 332°
2026-05-06 04:58 36.62382 -121.80061 22010 ft 372 kts 332°
2026-05-06 04:58 36.64557 -121.81783 21459 ft 369 kts 332°
2026-05-06 04:58 36.66727 -121.83504 20909 ft 366 kts 332°
2026-05-06 04:58 36.68878 -121.85211 20354 ft 363 kts 332°
2026-05-06 04:59 36.71020 -121.86903 19809 ft 360 kts 332°
2026-05-06 04:59 36.73145 -121.88444 19272 ft 355 kts 336°
2026-05-06 04:59 36.75402 -121.89674 18729 ft 348 kts 344°
2026-05-06 04:59 36.77720 -121.90537 18193 ft 343 kts 349°
2026-05-06 05:00 36.80020 -121.91203 17653 ft 340 kts 351°
2026-05-06 05:00 36.82343 -121.91808 17099 ft 338 kts 351°
2026-05-06 05:00 36.84650 -121.92402 16525 ft 337 kts 351°
2026-05-06 05:00 36.86961 -121.93012 15964 ft 335 kts 351°
2026-05-06 05:01 36.89211 -121.93623 15440 ft 332 kts 351°
2026-05-06 05:01 36.91484 -121.94254 14915 ft 330 kts 350°
2026-05-06 05:01 36.93711 -121.94881 14395 ft 327 kts 350°
2026-05-06 05:01 36.95918 -121.95531 13882 ft 325 kts 348°
2026-05-06 05:02 36.98095 -121.96314 13362 ft 324 kts 346°
2026-05-06 05:02 37.00221 -121.97172 12853 ft 322 kts 345°
2026-05-06 05:02 37.02344 -121.98049 12350 ft 319 kts 345°
2026-05-06 05:02 37.04442 -121.98906 11845 ft 317 kts 345°
2026-05-06 05:03 37.06528 -121.99741 11347 ft 314 kts 346°
2026-05-06 05:03 37.08623 -122.00569 10855 ft 311 kts 346°
2026-05-06 05:03 37.10670 -122.01373 10490 ft 305 kts 346°
2026-05-06 05:03 37.12668 -122.02158 10307 ft 292 kts 346°
2026-05-06 05:04 37.14563 -122.02904 10213 ft 279 kts 346°
2026-05-06 05:04 37.16372 -122.03613 10080 ft 267 kts 346°
2026-05-06 05:04 37.18129 -122.04299 9790 ft 263 kts 346°
2026-05-06 05:04 37.19873 -122.04978 9435 ft 262 kts 346°
2026-05-06 05:05 37.21627 -122.05663 9098 ft 260 kts 346°